EW7146 Weather Reports


time (UTC)temp
C
wind
direction
speed
KPH
gust
KPH
rain 1hr
cm
rain 24hr
cm
rain mn
cm
humidity
%
barometer
mb
20260510200057 21 7 3.2 8.0 0.00 0.00 0.00 37 1025.7
20260510195334 20 27 3.2 8.0 0.00 0.00 0.00 38 1025.8
20260510194835 20 73 1.6 6.4 0.00 0.00 0.00 38 1026.0
20260510194334 20 124 3.2 8.0 0.00 0.00 0.00 38 1026.1
20260510193833 20 111 3.2 8.0 0.00 0.00 0.00 37 1026.2
20260510193334 20 97 3.2 11.3 0.00 0.00 0.00 37 1026.1
20260510192833 20 97 4.8 11.3 0.00 0.00 0.00 39 1026.1
20260510192335 20 102 6.4 14.5 0.00 0.00 0.00 40 1026.1
20260510191833 20 102 6.4 14.5 0.00 0.00 0.00 37 1026.2
20260510191553 20 131 8.0 14.5 0.00 0.00 0.00 38 1026.2
20260510191058 20 128 4.8 16.1 0.00 0.00 0.00 39 1026.2
20260510190334 20 141 8.0 16.1 0.00 0.00 0.00 39 1026.2
20260510185833 20 145 4.8 11.3 0.00 0.00 0.00 39 1026.2
20260510185554 20 56 6.4 11.3 0.00 0.00 0.00 40 1026.1
20260510184833 20 75 6.4 11.3 0.00 0.00 0.00 40 1026.3
20260510184332 20 41 3.2 11.3 0.00 0.00 0.00 41 1026.4
20260510183833 20 96 3.2 9.7 0.00 0.00 0.00 41 1026.4
20260510183333 20 85 3.2 9.7 0.00 0.00 0.00 39 1026.3
20260510182833 20 75 4.8 9.7 0.00 0.00 0.00 41 1026.3
20260510182332 20 114 3.2 8.0 0.00 0.00 0.00 39 1026.3
20260510181837 19 75 4.8 8.0 0.00 0.00 0.00 42 1026.3
20260510181554 19 138 3.2 8.0 0.00 0.00 0.00 41 1026.4
20260510181048 19 114 3.2 8.0 0.00 0.00 0.00 41 1026.5
20260510180333 18 279 1.6 4.8 0.00 0.00 0.00 41 1026.6
20260510180051 18 341 1.6 4.8 0.00 0.00 0.00 42 1026.6
20260510175333 18 111 0.0 3.2 0.00 0.00 0.00 44 1026.7
20260510174831 17 118 1.6 6.4 0.00 0.00 0.00 45 1026.8
20260510174333 17 148 1.6 8.0 0.00 0.00 0.00 45 1026.8
20260510173831 17 130 4.8 9.7 0.00 0.00 0.00 46 1026.7
20260510173408 16 111 6.4 11.3 0.00 0.00 0.00 47 1026.8
20260510173330 16 134 4.8 11.3 0.00 0.00 0.00 46 1026.8
20260510173316 16 121 4.8 11.3 0.00 0.00 0.00 47 1026.8
20260510171831 16 100 6.4 9.7 0.00 0.00 0.00 47 1026.8
20260510171550 16 100 4.8 6.4 0.00 0.00 0.00 47 1026.7
20260510170832 16 80 1.6 4.8 0.00 0.00 0.00 47 1026.9
20260510170330 16 145 3.2 4.8 0.00 0.00 0.00 47 1027.0
20260510165832 16 63 1.6 4.8 0.00 0.00 0.00 48 1026.9
20260510165330 15 54 0.0 4.8 0.00 0.00 0.00 49 1026.9
20260510165050 15 80 0.0 4.8 0.00 0.00 0.00 51 1027.0
20260510164327 15 151 1.6 8.0 0.00 0.00 0.00 50 1027.0
20260510164056 15 102 3.2 8.0 0.00 0.00 0.00 50 1026.9
20260510163331 15 124 4.8 9.7 0.00 0.00 0.00 51 1026.9
20260510163049 15 130 6.4 9.7 0.00 0.00 0.00 50 1026.9
20260510162331 15 78 3.2 8.0 0.00 0.00 0.00 52 1027.0
20260510161829 15 107 1.6 4.8 0.00 0.00 0.00 53 1027.0
20260510161329 14 8 0.0 1.6 0.00 0.00 0.00 57 1027.5
20260510161058 14 350 0.0 1.6 0.00 0.00 0.00 58 1027.6
20260510160329 13 347 0.0 1.6 0.00 0.00 0.00 58 1027.8
20260510155829 13 343 0.0 1.6 0.00 0.00 0.00 57 1027.7
20260510155329 13 343 0.0 1.6 0.00 0.00 0.00 54 1027.7
20260510154829 14 7 0.0 3.2 0.00 0.00 0.00 57 1027.6
20260510154329 14 149 1.6 3.2 0.00 0.00 0.00 54 1027.9
20260510153830 13 197 1.6 3.2 0.00 0.00 0.00 53 1027.8
20260510153328 13 86 1.6 4.8 0.00 0.00 0.00 55 1028.0
20260510152828 13 118 1.6 4.8 0.00 0.00 0.00 57 1028.1
20260510152546 13 87 0.0 1.6 0.00 0.00 0.00 58 1028.2
20260510151828 12 106 0.0 1.6 0.00 0.00 0.00 61 1028.4
20260510151325 12 268 0.0 1.6 0.00 0.00 0.00 62 1028.5
20260510150824 11 258 0.0 0.0 0.00 0.00 0.00 66 1028.5
20260510150328 11 257 0.0 0.0 0.00 0.00 0.00 67 1028.6
20260510150050 11 257 0.0 0.0 0.00 0.00 0.00 69 1028.7
20260510145819 9 257 0.0 0.0 0.00 0.00 0.00 72 1028.7
20260510144827 8 257 0.0 0.0 0.00 0.00 0.00 76 1028.6
20260510144327 7 257 0.0 0.0 0.00 0.00 0.00 79 1028.6
20260510143827 7 331 0.0 0.0 0.00 0.00 0.00 81 1028.6
20260510143327 7 49 0.0 0.0 0.00 0.00 0.00 82 1028.5
20260510142827 7 49 0.0 0.0 0.00 0.00 0.00 83 1028.6
20260510142327 7 49 0.0 0.0 0.00 0.00 0.00 83 1028.6
20260510141827 6 49 0.0 0.0 0.00 0.00 0.00 84 1028.6
20260510141551 6 49 0.0 0.0 0.00 0.00 0.00 86 1028.6
20260510140827 6 49 0.0 0.0 0.00 0.00 0.00 86 1028.6
20260510140326 5 51 0.0 0.0 0.00 0.00 0.00 86 1028.7
20260510135826 5 52 0.0 0.0 0.00 0.00 0.00 87 1028.6
20260510135553 5 52 0.0 0.0 0.00 0.00 0.00 88 1028.6
20260510134825 4 52 0.0 0.0 0.00 0.00 0.00 88 1028.6
20260510134548 4 52 0.0 0.0 0.00 0.00 0.00 89 1028.6
20260510133822 4 52 0.0 0.0 0.00 0.00 0.00 89 1028.7
20260510133327 3 52 0.0 0.0 0.00 0.00 0.00 90 1028.7
20260510133050 3 52 0.0 0.0 0.00 0.00 0.00 89 1028.7
20260510132326 3 52 0.0 1.6 0.00 0.00 0.00 89 1028.7
20260510131825 3 52 0.0 1.6 0.00 0.00 0.00 89 1028.6
20260510131325 3 221 0.0 0.0 0.00 0.00 0.00 89 1028.5
20260510130822 3 221 0.0 1.6 0.00 0.00 0.00 90 1028.4
20260510130541 3 221 0.0 1.6 0.00 0.00 0.00 89 1028.5
20260510125822 3 221 0.0 0.0 0.00 0.00 0.00 89 1028.6
20260510125324 3 221 0.0 0.0 0.00 0.00 0.00 88 1028.6
20260510124826 3 221 0.0 0.0 0.00 0.00 0.00 89 1028.6
20260510124551 3 221 0.0 0.0 0.00 0.00 0.00 88 1028.6
20260510123824 3 221 0.0 0.0 0.00 0.00 0.00 88 1028.6
20260510123324 3 221 0.0 0.0 0.00 0.00 0.00 88 1028.6
20260510122824 3 221 0.0 0.0 0.00 0.00 0.00 88 1028.6
20260510122321 3 221 0.0 0.0 0.00 0.00 0.00 87 1028.7
20260510121819 3 221 0.0 0.0 0.00 0.00 0.00 87 1028.6
20260510121542 3 221 0.0 0.0 0.00 0.00 0.00 87 1028.6
20260510120823 3 221 0.0 0.0 0.00 0.00 0.00 87 1028.6
20260510120325 3 221 0.0 0.0 0.00 0.00 0.00 87 1028.6
20260510115823 3 221 0.0 0.0 0.00 0.00 0.00 88 1028.8
20260510115543 3 221 0.0 0.0 0.00 0.00 0.00 88 1028.8
20260510114823 3 221 0.0 0.0 0.00 0.00 0.00 87 1028.8
20260510114319 4 221 0.0 0.0 0.00 0.00 0.00 86 1028.7
20260510113820 4 221 0.0 0.0 0.00 0.00 0.00 86 1028.8
20260510113548 4 221 0.0 0.0 0.00 0.00 0.00 87 1028.7
20260510112820 4 221 0.0 0.0 0.00 0.00 0.00 88 1028.7
20260510112548 4 221 0.0 0.0 0.00 0.00 0.00 87 1028.8
20260510111824 4 221 0.0 0.0 0.00 0.00 0.00 87 1028.7
20260510111322 4 221 0.0 0.0 0.00 0.00 0.00 88 1028.8
20260510110822 4 221 0.0 0.0 0.00 0.00 0.00 86 1028.8
20260510110323 5 221 0.0 0.0 0.00 0.00 0.00 85 1028.8
20260510105822 5 221 0.0 0.0 0.00 0.00 0.00 85 1028.8
20260510105322 5 221 0.0 0.0 0.00 0.00 0.00 84 1028.8
20260510105306 5 221 0.0 0.0 0.00 0.00 0.00 84 1028.8
20260510104320 5 221 0.0 0.0 0.00 0.00 0.00 85 1028.9
20260510103821 5 221 0.0 0.0 0.00 0.00 0.00 85 1028.9
20260510103323 5 214 0.0 0.0 0.00 0.00 0.00 86 1028.9
20260510102822 5 209 0.0 0.0 0.00 0.00 0.00 85 1028.9
20260510102322 5 209 0.0 0.0 0.00 0.00 0.00 85 1029.1
20260510101821 5 209 0.0 0.0 0.00 0.00 0.00 84 1029.1
20260510101321 5 210 0.0 0.0 0.00 0.00 0.00 84 1029.1
20260510100818 5 209 0.0 0.0 0.00 0.00 0.00 82 1029.1
20260510100317 5 209 0.0 0.0 0.00 0.00 0.00 81 1029.1
20260510095819 5 209 0.0 0.0 0.00 0.00 0.00 82 1028.9
20260510095320 5 209 0.0 0.0 0.00 0.00 0.00 81 1029.1
20260510094821 6 209 0.0 0.0 0.00 0.00 0.00 81 1029.1
20260510094320 6 209 0.0 0.0 0.00 0.00 0.00 80 1029.1
20260510093820 6 209 0.0 0.0 0.00 0.00 0.00 80 1029.2
20260510093320 6 209 0.0 0.0 0.00 0.00 0.00 81 1029.2
20260510092820 6 207 0.0 0.0 0.00 0.00 0.00 81 1029.1
20260510092321 6 207 0.0 0.0 0.00 0.00 0.00 81 1029.1
20260510091820 6 206 0.0 0.0 0.00 0.00 0.00 81 1029.1
20260510091318 6 206 0.0 0.0 0.00 0.00 0.00 80 1029.2
20260510090819 6 204 0.0 0.0 0.00 0.00 0.00 80 1029.2
20260510090319 6 204 0.0 0.0 0.00 0.00 0.00 79 1029.2
20260510085819 6 204 0.0 0.0 0.00 0.00 0.00 78 1029.2
20260510085319 6 204 0.0 0.0 0.00 0.00 0.00 78 1029.3
20260510084819 6 204 0.0 0.0 0.00 0.00 0.00 77 1029.2
20260510084319 7 204 0.0 0.0 0.00 0.00 0.00 76 1029.1
20260510084047 7 204 0.0 1.6 0.00 0.00 0.00 75 1029.1
20260510083541 7 204 0.0 1.6 0.00 0.00 0.00 76 1029.1
20260510082817 7 202 0.0 0.0 0.00 0.00 0.00 78 1029.1
20260510082318 7 202 0.0 0.0 0.00 0.00 0.00 77 1029.2
20260510081818 7 202 0.0 0.0 0.00 0.00 0.00 77 1029.2
20260510081539 7 202 0.0 0.0 0.00 0.00 0.00 76 1029.2
20260510080819 7 202 0.0 0.0 0.00 0.00 0.00 75 1029.2
20260510080318 7 202 0.0 0.0 0.00 0.00 0.00 75 1029.2
20260510075819 7 202 0.0 0.0 0.00 0.00 0.00 75 1029.2
20260510075318 8 161 0.0 0.0 0.00 0.00 0.00 72 1029.2
20260510074817 8 161 0.0 1.6 0.00 0.00 0.00 72 1029.2
20260510074316 8 161 0.0 1.6 0.00 0.00 0.00 72 1029.1
20260510074039 8 161 0.0 0.0 0.00 0.00 0.00 72 1029.1
20260510073317 8 161 0.0 0.0 0.00 0.00 0.00 70 1029.2
20260510072817 8 161 0.0 0.0 0.00 0.00 0.00 69 1029.2
20260510072317 8 161 0.0 1.6 0.00 0.00 0.00 68 1028.9
20260510071818 9 159 0.0 1.6 0.00 0.00 0.00 68 1028.9
20260510071317 9 255 0.0 0.0 0.00 0.00 0.00 68 1028.9
20260510070817 10 255 0.0 0.0 0.00 0.00 0.00 66 1028.9
20260510070316 10 255 0.0 0.0 0.00 0.00 0.00 64 1028.8
20260510065818 10 255 0.0 0.0 0.00 0.00 0.00 64 1028.9
20260510065316 10 255 0.0 0.0 0.00 0.00 0.00 65 1028.9
20260510064816 10 255 0.0 0.0 0.00 0.00 0.00 65 1029.1
20260510064316 10 262 0.0 0.0 0.00 0.00 0.00 66 1028.9
20260510063816 10 262 0.0 0.0 0.00 0.00 0.00 68 1029.1
20260510063316 10 262 0.0 0.0 0.00 0.00 0.00 66 1029.1
20260510062815 10 262 0.0 1.6 0.00 0.00 0.00 64 1029.1
20260510062544 10 262 0.0 1.6 0.00 0.00 0.00 64 1029.1
20260510062032 10 251 0.0 0.0 0.00 0.00 0.00 66 1029.1
20260510061317 11 251 0.0 0.0 0.00 0.00 0.00 64 1029.1
20260510060816 11 251 0.0 0.0 0.00 0.00 0.00 63 1029.1
20260510060536 11 296 0.0 0.0 0.00 0.00 0.00 61 1028.9
20260510055815 11 316 0.0 1.6 0.00 0.00 0.00 60 1028.8
20260510055315 12 49 0.0 1.6 0.00 0.00 0.00 58 1028.9
20260510054815 12 49 0.0 1.6 0.00 0.00 0.00 58 1028.8
20260510054315 13 264 0.0 1.6 0.00 0.00 0.00 54 1028.9
20260510053816 14 120 0.0 4.8 0.00 0.00 0.00 52 1028.8
20260510053315 15 120 1.6 9.7 0.00 0.00 0.00 47 1028.6
20260510052816 15 124 1.6 9.7 0.00 0.00 0.00 47 1028.7
20260510052314 14 183 4.8 9.7 0.00 0.00 0.00 48 1028.7
20260510051815 14 233 3.2 8.0 0.00 0.00 0.00 50 1028.9
20260510051314 15 134 0.0 9.7 0.00 0.00 0.00 48 1028.8
20260510050814 15 162 4.8 9.7 0.00 0.00 0.00 46 1028.9
20260510050314 14 190 6.4 8.0 0.00 0.00 0.00 48 1028.9
20260510045814 13 247 1.6 1.6 0.00 0.00 0.00 53 1028.8
20260510045314 13 244 0.0 0.0 0.00 0.00 0.00 53 1028.7
20260510044813 14 244 0.0 1.6 0.00 0.00 0.00 52 1028.8
20260510044315 14 243 0.0 1.6 0.00 0.00 0.00 51 1028.9
20260510044031 15 231 0.0 0.0 0.00 0.00 0.00 51 1028.8
20260510043313 15 157 0.0 0.0 0.00 0.00 0.00 52 1028.8
20260510042813 15 157 0.0 3.2 0.00 0.00 0.00 51 1028.7
20260510042312 15 155 0.0 3.2 0.00 0.00 0.00 51 1028.6
20260510041814 15 243 0.0 1.6 0.00 0.00 0.00 50 1028.6
20260510041313 15 252 0.0 3.2 0.00 0.00 0.00 49 1028.6
20260510040814 16 214 1.6 4.8 0.00 0.00 0.00 48 1028.5
20260510040312 16 223 1.6 6.4 0.00 0.00 0.00 48 1028.6
20260510035812 16 216 3.2 6.4 0.00 0.00 0.00 48 1028.5
20260510035313 16 216 0.0 3.2 0.00 0.00 0.00 48 1028.4
20260510034813 17 231 0.0 1.6 0.00 0.00 0.00 48 1028.4
20260510034313 17 231 0.0 1.6 0.00 0.00 0.00 44 1028.4
20260510033812 17 216 0.0 4.8 0.00 0.00 0.00 44 1028.5
20260510033538 18 116 0.0 4.8 0.00 0.00 0.00 39 1028.3
20260510032811 18 140 0.0 6.4 0.00 0.00 0.00 39 1028.1
20260510032313 18 169 3.2 6.4 0.00 0.00 0.00 41 1028.2
20260510032306 18 210 0.0 1.6 0.00 0.00 0.00 41 1028.1
20260510031312 18 210 0.0 0.0 0.00 0.00 0.00 43 1028.0
20260510030811 18 210 0.0 1.6 0.00 0.00 0.00 41 1028.1
20260510030311 18 210 0.0 1.6 0.00 0.00 0.00 40 1028.1
20260510025811 19 162 0.0 1.6 0.00 0.00 0.00 41 1028.2
20260510025310 20 162 0.0 1.6 0.00 0.00 0.00 38 1028.1
20260510024811 20 111 0.0 1.6 0.00 0.00 0.00 36 1028.0
20260510024311 20 111 0.0 3.2 0.00 0.00 0.00 35 1028.0
20260510023812 20 111 0.0 4.8 0.00 0.00 0.00 35 1028.1
20260510023310 21 110 1.6 4.8 0.00 0.00 0.00 34 1028.2
20260510023035 21 120 0.0 4.8 0.00 0.00 0.00 33 1028.1
20260510022538 21 113 0.0 4.8 0.00 0.00 0.00 33 1028.1
20260510022034 21 123 0.0 8.0 0.00 0.00 0.00 33 1028.1
20260510021310 22 102 0.0 14.5 0.00 0.00 0.00 31 1028.2
20260510020810 22 107 3.2 14.5 0.00 0.00 0.00 30 1028.1
20260510020535 22 97 6.4 14.5 0.00 0.00 0.00 29 1028.2
20260510015809 22 134 6.4 14.5 0.00 0.00 0.00 30 1028.3
20260510015311 22 113 4.8 14.5 0.00 0.00 0.00 30 1028.2
20260510014809 22 69 6.4 11.3 0.00 0.00 0.00 29 1028.2
20260510014309 22 142 6.4 14.5 0.00 0.00 0.00 29 1028.3
20260510013809 23 149 8.0 14.5 0.00 0.00 0.00 30 1028.2
20260510013532 23 142 6.4 11.3 0.00 0.00 0.00 29 1028.2
20260510012810 22 148 6.4 9.7 0.00 0.00 0.00 29 1028.3
20260510012534 22 142 3.2 14.5 0.00 0.00 0.00 31 1028.4
20260510012027 22 103 6.4 17.7 0.00 0.00 0.00 30 1028.3
20260510011309 22 127 9.7 17.7 0.00 0.00 0.00 29 1028.3
20260510011028 22 118 6.4 16.1 0.00 0.00 0.00 30 1028.4
20260510010310 22 124 9.7 14.5 0.00 0.00 0.00 29 1028.5
20260510005808 22 73 3.2 14.5 0.00 0.00 0.00 30 1028.5
20260510005309 22 118 8.0 14.5 0.00 0.00 0.00 29 1028.6
20260510005031 23 116 6.4 14.5 0.00 0.00 0.00 29 1028.5
20260510004536 23 133 4.8 19.3 0.00 0.00 0.00 30 1028.6
20260510003808 23 128 8.0 19.3 0.00 0.00 0.00 29 1028.6
20260510003310 23 113 8.0 14.5 0.00 0.00 0.00 29 1028.6
20260510002808 23 92 6.4 17.7 0.00 0.00 0.00 29 1028.5
20260510002309 23 100 6.4 17.7 0.00 0.00 0.00 29 1028.5
20260510001808 23 107 4.8 16.1 0.00 0.00 0.00 28 1028.6
20260510001307 23 109 8.0 14.5 0.00 0.00 0.00 27 1028.6
20260510001030 23 130 6.4 14.5 0.00 0.00 0.00 28 1028.5
20260510000308 23 97 8.0 16.1 0.00 0.00 0.00 27 1028.6
20260509235808 23 145 8.0 16.1 0.00 0.00 0.00 27 1028.6
20260509235307 23 107 6.4 16.1 0.00 0.00 0.00 28 1028.7
20260509234808 23 89 6.4 17.7 0.00 0.00 0.00 28 1028.7
20260509234307 23 116 12.9 17.7 0.00 0.00 0.00 27 1028.7
20260509233808 23 107 9.7 16.1 0.00 0.00 0.00 27 1028.8
20260509233747 23 106 8.0 16.1 0.00 0.00 0.00 27 1028.8
20260509232806 23 100 6.4 16.1 0.00 0.00 0.00 26 1028.8
20260509232307 23 90 6.4 17.7 0.00 0.00 0.00 27 1028.9
20260509231806 23 90 11.3 20.9 0.00 0.00 0.00 26 1028.9
20260509231307 23 110 4.8 20.9 0.00 0.00 0.00 27 1029.1
20260509231026 24 131 4.8 19.3 0.00 0.00 0.00 28 1029.1
20260509230308 23 80 9.7 22.5 0.00 0.00 0.00 27 1029.1
20260509225805 23 90 9.7 22.5 0.00 0.00 0.00 28 1029.2
20260509225308 23 107 9.7 20.9 0.00 0.00 0.00 27 1029.2
20260509224805 23 107 4.8 14.5 0.00 0.00 0.00 29 1029.3
20260509224529 23 104 4.8 11.3 0.00 0.00 0.00 29 1029.4
20260509223806 23 104 8.0 19.3 0.00 0.00 0.00 29 1029.4
20260509223531 23 93 8.0 19.3 0.00 0.00 0.00 28 1029.5
20260509222807 23 152 8.0 17.7 0.00 0.00 0.00 27 1029.5
20260509222307 23 116 9.7 17.7 0.00 0.00 0.00 23 1029.5
20260509221807 23 87 6.4 22.5 0.00 0.00 0.00 26 1029.6
20260509221744 23 90 11.3 22.5 0.00 0.00 0.00 22 1029.6
20260509220806 23 127 8.0 19.3 0.00 0.00 0.00 24 1029.7
20260509220304 23 86 8.0 19.3 0.00 0.00 0.00 23 1029.8
20260509215804 23 158 11.3 19.3 0.00 0.00 0.00 23 1029.8
20260509215528 23 137 11.3 22.5 0.00 0.00 0.00 21 1029.9
20260509214803 23 114 9.7 22.5 0.00 0.00 0.00 23 1029.9
20260509214305 23 135 11.3 20.9 0.00 0.00 0.00 24 1029.9
20260509213803 23 102 12.9 20.9 0.00 0.00 0.00 23 1029.9
20260509213306 23 111 9.7 20.9 0.00 0.00 0.00 25 1030.0
20260509212804 23 114 11.3 19.3 0.00 0.00 0.00 22 1030.0
20260509212306 23 127 9.7 17.7 0.00 0.00 0.00 24 1029.9
20260509211804 23 61 4.8 17.7 0.00 0.00 0.00 24 1030.0
20260509211303 23 152 11.3 20.9 0.00 0.00 0.00 22 1030.0
20260509210804 23 68 8.0 20.9 0.00 0.00 0.00 25 1030.1
20260509210302 23 85 9.7 17.7 0.00 0.00 0.00 22 1030.1
20260509205805 23 93 11.3 20.9 0.00 0.00 0.00 25 1030.1
20260509205306 23 140 4.8 20.9 0.00 0.00 0.00 25 1030.0
20260509204804 23 130 9.7 20.9 0.00 0.00 0.00 25 1030.1
20260509204302 23 54 6.4 16.1 0.00 0.00 0.00 25 1030.1
20260509204035 23 51 6.4 19.3 0.00 0.00 0.00 25 1030.1
20260509203302 23 69 8.0 19.3 0.00 0.00 0.00 27 1030.1
20260509202802 23 109 6.4 17.7 0.00 0.00 0.00 26 1030.0
20260509202306 23 117 9.7 17.7 0.00 0.00 0.00 26 1030.1
20260509201803 23 107 9.7 17.7 0.00 0.00 0.00 29 1030.1
20260509201530 22 65 8.0 22.5 0.00 0.00 0.00 29 1030.1
20260509200802 22 128 12.9 22.5 0.00 0.00 0.00 27 1030.2
20260509200304 22 86 6.4 20.9 0.00 0.00 0.00 28 1030.2